Showing default

KANOPUS-V 3, 43180

Orbit data source: Space-Track

KANOPUS-V 3, 43180 is a payload satellite owned by VNIIEM (CIS) in SSO that was launched on Thu, 01 Feb 2018 UTC via a SOYUZ-2-1A launch vehicle from the Vostochny Cosmodrome (VOSTO). Payloads include a variety of satellites, spacecraft, and rockets equipped with specific instruments for various scientific and technological missions. These include communications satellites like Starlink; space stations such as the ISS; scientific satellites like the Hubble; Earth observation satellites from companies like Planet Labs, Umbra, and HawkEye 360; GPS; miniature CubeSats for education and research; and military/defense satellites.

Loading next visibility...
KANOPUS-V 3 details
Identifier
43180, 2018-014A
Orbit
SSO
Last TLE update5 hours ago
Origin
Flag of CISVNIIEM (CIS)
ManufacturerVNIIEM
MissionOperational Civil Imaging
Bus & MotorKANOPUS, Unknown motor
Mass490 kg wet, 490 kg dry
Launch date (UTC)
2018-02-01 (7 years ago)
Launch vehicle
SOYUZ-2-1A
Launch site
Vostochny Cosmodrome (VOSTO)
Object type
Payload
Rocket body
Debris
Shape & HBRBox + 2 Pan, 6 m
Radar Cross Section1.665 m², Large (>1 m²)

Expand to show TLE details & history

TLE from 5 hours ago
0 KANOPUS-V 3
1 43180U 18014A   24337.11663097  .00007206  00000-0  31967-3 0  9996
2 43180  97.3880 242.0305 0001703  76.4292 283.7134 15.21879472379182
Epoch: 2024-12-02T02:47Z
Definitive object data (Epoch: 2024-12-02T02:47:56.915Z)
Latitude-0.00003°
Longitude128.59825°
Altitude502.988 km
Speed7.613 km/s
True Right ascension16h 08m 07s
True Declination0° 00' 00"
Sunlit
Object was in daylight at TLE epoch
Visualization TLE readout
Latitude-51.60735°
Longitude138.14857°
Altitude520.968 km
Speed7.601 km/s
Apparent Right ascension16h 55m 55s
Apparent Declination-45° 49' 53"
Sunlit
Object is in daylight
Visualization observer readout
Local Sidereal Time05:04:20
Azimuth166.102° S
Elevation-83.888°
Doppler factor1
Orbital elements
Apogee altitude498.305 km
Perigee altitude495.963 km
Semi-major axis6,875.271 km
Eccentricity0.0001703
Inclination97.388°
RAAN242.0305°
Arg. of periapsis76.4292°
True anomaly283.69444°
Mean anomaly283.7134°
Eccentric anomaly283.70392°
Mean motion3.80722 °/min
BSTAR0.00031967
Orbital period94.56 mins
Loading maneuver chart data...
Loading historical data...
Loading historical data...
Loading historical data...
Loading historical data...
Loading historical data...
Loading historical data...
Loading historical data...

KANOPUS-V 3 Visibility forecast

Observer location: undefined°, undefined

Span
Click to sort rows by Start time (UTC) header in descending order
Start Az.
Max El. time (UTC)
Max El. Az.
Max El.
End time (UTC)
End Az.
4 mins2024-12-02 17:09:17.476Z111.603° ESE2024-12-02 17:11:17.476Z70.102° E20.553°2024-12-02 17:13:17.476Z28.49° NE
4 mins2024-12-02 18:43:17.476Z229.133° WSW2024-12-02 18:45:17.476Z273.133° WNW19.664°2024-12-02 18:47:17.476Z310.466° NW
5 mins2024-12-03 06:12:17.476Z43.572° NE2024-12-03 06:14:17.476Z90.372° ESE27.265°2024-12-03 06:17:17.476Z157.489° SSE
|